Regional Weather Roundup
Issued by NWS Huntsville, AL

Home | Current Version | Previous Version | Text Only | Print | Product List | Glossary On
Versions: 1 2 3 4 5 6 7 8 9 10 11 12 13 14 15 16 17 18 19 20 21 22 23 24 25 26 27 28
000
ASUS44 KHUN 211710
RWRHUN

WEATHER ROUNDUP FOR THE TENNESSEE VALLEY
NATIONAL WEATHER SERVICE HUNTSVILLE AL
1100 AM CST SAT JAN 21 2017

ALZ001>004-211800-
NORTHWEST ALABAMA

CITY           SKY/WX    TMP DP  RH WIND       PRES   REMARKS
COURTLAND HCN    N/A     59 N/A N/A E3          N/A
RUSSELLVILLE     N/A     61 N/A N/A MISG        N/A
SHOALS AIRPORT CLOUDY    62  54  74 E3        29.73R
SHOALS TVA RES   N/A     61 N/A N/A MISG        N/A
$$

ALZ005>007-016-211800-
NORTH CENTRAL ALABAMA

CITY           SKY/WX    TMP DP  RH WIND       PRES   REMARKS
CULLMAN AG STN   N/A     59 N/A N/A E8          N/A
DECATUR AP     CLOUDY    62  56  80 SE8       29.72R
HUNTSVILLE AP  PTSUNNY   62  55  77 SE12      29.71R
MERIDIANVILLE  PTSUNNY   59  50  72 SE7       29.70R
REDSTONE ARSN  PTSUNNY   61  54  78 SE7       29.70R
VINEMONT AP    FAIR      59  50  71 E9G16     29.74S
$$

ALZ008>010-211800-
NORTHEAST ALABAMA

CITY           SKY/WX    TMP DP  RH WIND       PRES   REMARKS
ALBERTVILLE    CLOUDY    55  55 100 E5        29.70R
FORT PAYNE     CLOUDY    55  46  71 N12G29    29.66F
SCOTTSBORO AP  CLOUDY    57  57 100 NE8       29.73R
SCOTTSBORO HCN   N/A     57 N/A N/A MISG        N/A
VALLEY HEAD      N/A     54 N/A N/A MISG        N/A
$$

TNZ076-096-097-211800-
SOUTHEASTERN MIDDLE TENNESSEE

CITY           SKY/WX    TMP DP  RH WIND       PRES   REMARKS
TULLAHOMA      SUNNY     55  52  88 SE8       29.71R
WINCHESTER     MOSUNNY   55  52  88 SE18      29.68F
$$

...SURROUNDING SITES...

CITY           SKY/WX    TMP DP  RH WIND       PRES   REMARKS
ATLANTA        RAIN      59  59 100 NE22      29.69F FOG
ANNISTON       PTSUNNY   58  54  86 E9G22     29.66F
BIRMINGHAM     CLOUDY    60  55  83 NE10      29.73S
CHATTANOOGA    LGT RAIN  56  53  90 E18       29.71F FOG
CORINTH        FAIR      64  52  63 SE8       29.70S
DALTON         RAIN      54  54 100 CALM      29.83F
GADSDEN        CLOUDY    58  54  86 NE13      29.69R
GOLDEN TRNGL   PTSUNNY   63  54  72 E7        29.68F
HALEYVILLE     PTSUNNY   61  55  81 E9        29.73F
JACKSON TN     SUNNY     68  51  54 S14G22    29.70R
MEMPHIS        MOSUNNY   69  52  54 S14       29.68F
NASHVILLE      CLOUDY    67  45  45 S8        29.72R
OXFORD MS      LGT RAIN  66  48  52 SE10G17   29.72F
ROME           LGT RAIN  57  54  89 E17       29.75F FOG
SAVANNAH       SUNNY     64  54  68 S7        29.70R
TUPELO         MOSUNNY   64  52  64 E6        29.71S
TUSCALOOSA     CLOUDY    62  56  80 NE7       29.71F
$$

...GULF COAST WEATHER...

CITY           SKY/WX    TMP DP  RH WIND       PRES   REMARKS
GULFPORT       SUNNY     69  62  78 VRB3      29.74F
PASCAGOULA     SUNNY     71  59  65 N5        29.75R
MOBILE         MOSUNNY   69  59  70 CALM      29.74F
GULF SHORES    CLOUDY    61  61 100 E6        29.73F
PENSACOLA      LGT RAIN  62  60  93 NE7       29.74F
DESTIN         HVY RAIN  64  64 100 N15       29.79  VSB 3/4
PANAMA CITY    CLOUDY    73  70  88 S12       29.78F
APPALACHICOLA  MOSUNNY   75  71  87 S14       29.81F
$$





USA.gov is the U.S. government's official web portal to all federal, state and local government web resources and services.